Regional Weather Roundup
Issued by NWS

Home | Current Version | Previous Version | Text Only | Print | Product List | Glossary On
Versions: 1 2 3 4 5 6 7 8 9 10 11 12 13 14 15 16 17 18 19 20 21 22 23 24 25 26 27 28 29 30 31 32 33 34 35 36 37 38 39 40 41 42 43 44 45 46 47 48 49 50
565
ASUS44 KLIX 240612
RWRLA
LOUISIANA WEATHER ROUNDUP
NATIONAL WEATHER SERVICE NEW ORLEANS LA
100 AM CDT MON APR 24 2017

NOTE: "FAIR" INDICATES FEW OR NO CLOUDS BELOW 12,000 FEET WITH NO
      SIGNIFICANT WEATHER AND/OR OBSTRUCTIONS TO VISIBILITY.
      SKY/WX - SKY CONDITION AND SIGNIFICANT WEATHER.
      TMP - AIR TEMPERATURE.    DP   - DEWPOINT TEMPERATURE.
      RH  - RELATIVE HUMIDITY.  PRES - PRESSURE.
      HX  - HEAT INDEX.         WCI  - WIND CHILL INDEX.

*  THESE STATIONS ARE NOT NWS OR FAA STATIONS AND ARE NOT UNDER
   NWS QUALITY CONTROL.

LAZ040-048-061>063-065-066-069-240700-
SOUTHEAST LOUISIANA

CITY           SKY/WX    TMP DP  RH WIND       PRES   REMARKS
N.O. INTL ARPT PTCLDY    54  51  90 W6        29.95F
6HR MIN TEMP:  54; 6HR MAX TEMP:  62;

N.O. LAKEFRONT PTCLDY    63  52  67 NW15      29.95F
6HR MIN TEMP:  62; 6HR MAX TEMP:  64;

N.O. DOWNTOWN*   N/A     61  51  70 N6          N/A
6HR MIN TEMP:  61; 6HR MAX TEMP:  64;

RESERVE*       NOT AVBL
SLIDELL        CLEAR     53  50  89 CALM      29.93F
6HR MIN TEMP:  53; 6HR MAX TEMP:  60;

BATON ROUGE    CLEAR     52  50  93 CALM      29.96F
6HR MIN TEMP:  52; 6HR MAX TEMP:  61;

BOOTHVILLE     MOCLDY    62  53  72 N18       29.94F
6HR MIN TEMP:  61; 6HR MAX TEMP:  67;

BELLE CHASSE   CLEAR    N/A N/A N/A W3        29.94F
BOGALUSA*      NOT AVBL
GALLIANO*      CLEAR     53  47  82 CALM      29.96F
6HR MIN TEMP:  53; 6HR MAX TEMP:  64;

NEW ROADS*     FAIR      52  50  93 CALM      29.97F
6HR MIN TEMP:  51; 6HR MAX TEMP:  61;

GONZALES*      FAIR      50  50  97 CALM      29.96S
6HR MIN TEMP:  50; 6HR MAX TEMP:  61;

HAMMOND*       CLEAR     52  48  87 CALM      29.95F
HOUMA*         CLEAR     53  50  89 CALM      29.96F
6HR MIN TEMP:  53; 6HR MAX TEMP:  63;

PORT FOURCHON* CLEAR     61  52  72 NW10      29.95F

$$

LAZ041-044-053-054-240700-
SOUTHWEST LOUISIANA

CITY           SKY/WX    TMP DP  RH WIND       PRES   REMARKS
LAKE CHARLES   CLEAR     52  51  97 SW5       29.97F
6HR MIN TEMP:  52; 6HR MAX TEMP:  66;

LAFAYETTE      CLEAR     57  51  80 CALM      29.96F
6HR MIN TEMP:  56; 6HR MAX TEMP:  66;

PATTERSON      CLEAR     53  52  96 CALM      29.98
6HR MIN TEMP:  53; 6HR MAX TEMP:  64;

SALT POINT       N/A     57  52  83 CALM      29.96F
6HR MIN TEMP:  56; 6HR MAX TEMP:  65;

NEW IBERIA     CLEAR     53  49  86 CALM      29.97F
6HR MIN TEMP:  52; 6HR MAX TEMP:  63;

CHENAULT AIRPK CLEAR     54  51  91 CALM      29.97F
6HR MIN TEMP:  51; 6HR MAX TEMP:  63;


$$

LAZ027-028-240700-
CENTRAL LOUISIANA

CITY           SKY/WX    TMP DP  RH WIND       PRES   REMARKS
FORT POLK      CLEAR     51  49  94 CALM      29.96F
6HR MIN TEMP:  51; 6HR MAX TEMP:  66;

ALEXANDRIA INT CLEAR     50  50 100 CALM      29.94F
6HR MIN TEMP:  50; 6HR MAX TEMP:  64;

ALEXANDRIA     CLEAR     49  49 100 CALM      29.96F FOG
6HR MIN TEMP:  49; 6HR MAX TEMP:  65;


$$

LAZ001-002-240700-
NORTHWEST LOUISIANA

CITY           SKY/WX    TMP DP  RH WIND       PRES   REMARKS
SHREVEPORT     CLEAR     50  48  93 SW3       29.95F
6HR MIN TEMP:  50; 6HR MAX TEMP:  70;

BARKSDALE AFB  CLEAR     50  49  99 CALM      29.95F
6HR MIN TEMP:  48; 6HR MAX TEMP:  68;

DTN SHREVEPORT CLEAR     54  48  80 CALM      29.95F
6HR MIN TEMP:  53; 6HR MAX TEMP:  70;


$$

LAZ014-016-240700-
NORTHEAST LOUISIANA

CITY           SKY/WX    TMP DP  RH WIND       PRES   REMARKS
MONROE         CLEAR     50  49  96 CALM      29.95F
6HR MIN TEMP:  50; 6HR MAX TEMP:  68;

TALLULAH       CLEAR     52  51  97 W3        29.94F
6HR MIN TEMP:  52; 6HR MAX TEMP:  65;


$$





USA.gov is the U.S. government's official web portal to all federal, state and local government web resources and services.